Wind_Speed
36 36 35 35 34 32 28 25 26 26 28 28 28 29 30 32 33 34 31 28 26 26 26 26 25 25 24 22 21 21 20 18 17 16 15 14 14 13 12 12 11 11 11 11 11 11 11 12 12
39 39 38 38 37 33 28 27 28 28 29 29 28 29 29 32 33 33 31 28 27 28 27 27 26 25 25 23 22 21 20 19 18 17 16 15 14 14 13 12 12 12 12 11 11 11 12 13 13
42 42 42 41 38 34 30 30 30 31 31 29 29 29 30 32 34 33 31 29 29 29 29 28 27 26 25 24 23 22 21 20 19 18 17 16 15 14 13 13 13 12 12 11 11 12 13 12 12
45 45 45 44 40 35 32 31 33 32 32 30 30 31 31 32 32 30 30 30 29 30 30 29 29 27 26 25 24 23 22 21 20 19 18 17 16 15 14 14 13 13 12 12 12 13 13 13 13
49 48 48 46 41 37 35 33 34 34 33 31 31 32 32 32 31 30 31 31 31 30 30 30 30 29 27 26 25 24 23 22 21 19 18 18 17 16 15 14 14 13 13 13 13 13 13 13 14
51 52 51 48 43 39 37 36 36 36 34 33 32 32 32 32 31 32 32 32 31 31 30 30 30 30 29 27 26 25 24 22 21 20 19 19 18 16 16 15 15 14 14 14 14 14 14 15 16
53 54 53 50 46 42 39 38 38 38 36 35 34 34 33 32 31 32 32 32 32 31 30 30 30 30 29 28 27 26 25 24 22 21 20 19 18 17 17 16 16 15 15 15 15 15 15 16 17
54 56 56 52 49 44 41 41 41 40 38 37 37 36 34 32 32 32 32 32 31 30 30 30 30 30 30 29 28 27 26 24 23 22 21 20 19 18 18 17 16 16 16 15 16 16 17 18 19
56 59 57 52 49 46 44 44 43 42 41 40 39 38 37 34 33 33 32 32 31 30 30 30 30 30 31 30 29 28 26 25 24 23 22 21 20 19 18 18 17 17 16 16 17 17 18 19 20
59 61 55 51 51 49 48 47 46 45 44 42 41 40 38 35 34 33 33 32 32 31 30 30 30 30 31 31 30 29 27 26 25 24 22 21 20 19 19 18 18 17 17 18 18 18 19 20 21
60 59 54 53 53 52 51 50 49 48 47 44 43 42 40 38 36 35 35 34 33 32 31 31 30 31 30 30 30 30 29 27 26 24 23 22 21 20 20 19 18 18 18 19 19 20 21 22 23
61 59 57 55 54 55 54 53 53 51 48 46 45 45 44 41 39 38 36 35 34 33 33 32 31 30 30 31 30 30 29 28 26 25 24 23 22 21 20 20 19 19 20 20 21 21 22 24 25
61 59 58 58 57 57 57 56 56 54 51 49 48 48 47 44 42 40 39 38 37 35 34 32 32 31 31 31 31 30 29 28 27 26 24 24 23 22 22 21 21 21 21 22 22 23 24 25 26
59 58 59 59 59 59 59 59 59 56 53 52 51 50 48 45 43 42 42 40 38 36 35 34 33 32 32 32 31 30 30 29 27 26 25 24 24 23 22 22 22 22 23 24 24 25 26 27 28
57 59 60 60 60 59 60 62 60 57 56 55 53 52 50 48 46 44 43 42 40 38 37 36 34 34 33 33 32 31 30 29 28 27 26 25 24 24 23 23 23 24 25 25 26 26 27 28 29
56 58 60 59 59 59 62 63 59 58 58 57 55 54 52 50 48 46 45 44 42 41 39 37 36 35 34 34 33 32 31 30 29 28 27 26 25 25 25 24 25 25 26 27 27 27 28 29 31
56 59 59 57 58 59 62 63 59 59 60 59 57 56 55 52 50 48 47 45 44 43 41 39 37 36 36 35 34 33 32 31 30 29 28 27 26 26 26 26 26 27 28 28 28 29 30 31 32
54 56 58 57 56 59 62 62 60 60 60 60 59 57 56 54 52 50 49 47 46 44 43 41 39 38 37 36 35 34 33 32 31 30 29 29 28 28 28 28 28 28 29 29 30 30 31 33 34
52 53 55 56 55 57 60 62 61 61 61 61 61 59 58 56 54 52 51 50 48 47 45 43 41 39 38 36 35 34 33 33 32 31 31 30 29 29 29 29 29 29 30 30 31 32 33 34 35
51 53 53 53 54 56 58 61 61 62 62 61 61 60 59 57 56 54 53 52 51 49 47 45 42 41 39 37 36 35 35 34 33 32 32 31 31 31 31 30 30 31 31 32 32 33 34 34 35
50 52 51 50 50 53 56 60 61 62 62 62 61 60 59 58 57 55 54 53 52 51 49 46 44 42 41 39 38 37 36 35 34 34 34 33 33 32 32 32 32 32 32 33 33 34 34 34 35
48 49 48 48 50 52 54 58 60 60 62 62 61 60 60 59 58 57 55 54 53 51 50 48 46 44 43 41 40 39 38 36 36 36 35 35 34 33 33 34 34 33 33 34 34 34 35 35 35
44 45 47 47 48 51 53 58 59 57 60 61 60 59 59 59 59 58 57 55 53 52 52 50 49 47 45 43 41 40 39 38 38 37 36 36 35 35 35 35 35 35 35 35 35 35 35 35 35
42 44 46 47 48 52 52 55 59 56 56 57 58 58 58 58 58 59 58 57 55 54 53 52 51 49 47 45 43 41 39 39 39 38 37 37 37 36 36 37 36 36 35 35 35 35 35 35 36
39 42 43 46 50 52 49 54 58 53 52 53 56 56 57 58 59 59 60 58 57 55 54 53 52 51 49 46 44 42 40 40 39 39 39 38 38 38 37 38 37 36 36 36 36 35 35 36 36
37 40 42 44 46 49 50 54 53 49 49 51 52 54 55 57 58 59 59 59 58 57 55 54 53 52 50 48 45 43 42 41 40 39 39 39 38 38 38 38 37 37 36 36 36 36 36 36 37
36 38 39 41 42 42 47 49 48 47 49 49 49 51 53 54 56 57 58 59 58 57 56 54 53 52 51 49 47 45 43 42 41 40 40 39 39 38 38 38 37 36 36 36 36 36 36 37 37
35 35 38 43 42 42 43 44 45 44 47 48 47 49 51 52 54 55 56 57 58 57 56 55 53 53 51 50 48 46 45 44 43 42 41 40 39 39 39 38 37 36 36 36 36 36 36 37 37
33 34 36 39 41 41 39 38 37 40 41 44 44 46 48 49 51 53 54 55 55 55 56 55 54 53 52 50 49 48 47 45 44 43 42 41 41 40 39 38 37 37 36 36 36 36 36 36 36
29 32 34 37 40 41 39 33 32 37 39 40 42 44 46 47 49 51 53 54 55 55 55 54 54 53 52 50 49 48 47 46 45 44 42 42 41 39 38 38 38 38 37 36 36 36 36 36 36
Wind_Direction
255 254 253 252 252 252 252 250 247 243 241 239 236 234 233 234 235 236 236 233 229 229 229 230 231 231 231 231 231 231 231 232 233 234 236 239 243 247 254 260 266 271 277 282 285 287 292 296 298
254 253 251 250 250 251 250 248 245 242 241 239 237 235 234 236 236 236 236 233 230 230 231 231 231 231 231 231 231 231 231 233 234 235 237 240 243 247 253 259 265 270 276 279 282 286 291 294 295
252 251 250 250 249 249 249 247 244 242 242 239 236 235 233 235 236 236 236 234 231 230 231 232 231 231 231 231 230 230 231 232 234 236 238 240 242 247 252 258 264 270 274 277 281 287 290 292 293
251 250 249 249 248 247 247 245 244 242 241 239 235 233 233 234 235 237 237 235 232 231 231 232 231 230 229 230 230 229 230 232 234 236 237 240 242 247 252 257 263 270 273 277 281 286 288 289 292
249 248 248 248 247 245 244 242 242 240 239 236 235 234 233 234 234 234 234 233 232 231 231 231 230 229 228 228 228 228 229 232 234 236 238 240 243 247 251 257 263 268 273 277 281 286 286 289 293
248 247 247 247 246 244 242 241 241 240 238 236 234 233 233 233 232 232 232 231 231 230 229 229 229 228 227 227 227 228 229 231 233 236 238 240 243 247 251 257 263 267 271 275 280 285 287 291 295
249 247 246 245 243 241 240 239 238 238 236 235 234 233 233 231 230 231 231 230 230 229 229 228 228 227 226 226 227 228 229 231 233 235 238 240 243 248 252 258 263 266 269 274 280 285 288 292 296
247 246 244 242 242 240 239 238 236 235 235 233 233 232 231 229 229 230 230 230 229 229 228 227 226 226 225 226 226 227 228 230 232 234 237 241 244 248 252 258 262 265 269 274 281 285 288 293 296
245 245 243 242 241 240 237 237 236 234 233 232 232 232 230 228 228 229 229 229 229 228 228 227 226 225 226 226 226 226 227 229 232 235 238 242 245 248 253 258 261 264 269 275 281 285 289 293 297
244 245 244 242 241 239 236 235 233 233 232 231 231 232 231 229 228 229 229 229 228 228 227 227 226 225 225 226 225 225 227 229 232 234 237 241 244 249 254 258 260 264 270 276 281 286 290 293 297
244 245 243 241 239 237 235 233 232 231 231 230 230 231 230 228 227 227 228 228 227 226 227 227 226 226 225 225 225 225 227 229 231 233 237 241 244 249 253 256 260 265 271 278 282 286 289 293 297
244 243 241 239 237 236 234 232 231 231 230 229 229 230 229 227 226 226 227 227 227 227 227 226 226 225 225 225 225 225 227 228 231 234 238 242 245 248 251 255 260 267 274 278 281 285 289 293 297
243 241 240 238 236 235 233 232 231 229 228 228 228 229 228 227 227 226 226 227 226 227 227 227 226 225 224 225 226 225 226 229 232 236 239 242 245 247 251 256 262 269 274 278 281 286 289 293 297
243 241 238 236 234 234 233 231 230 228 228 228 228 229 228 227 227 227 227 227 227 227 228 228 227 226 225 225 225 226 228 230 234 237 239 242 245 248 253 258 263 269 274 278 282 286 289 293 297
241 240 238 235 234 233 234 232 229 227 228 228 228 229 228 227 227 227 227 228 227 228 228 228 228 227 227 226 226 227 229 232 234 238 240 243 245 249 254 259 265 270 275 279 283 286 289 293 296
239 239 238 235 234 233 234 233 229 228 229 227 227 228 228 227 227 227 227 228 227 227 228 228 229 228 227 227 227 228 230 233 236 239 241 243 246 250 255 261 266 272 276 280 283 286 290 293 296
238 238 238 236 235 234 234 233 228 229 229 228 227 227 228 227 226 226 227 228 228 228 228 228 229 228 228 228 228 230 232 235 237 239 241 243 247 252 257 262 268 273 277 279 282 286 290 293 296
239 239 237 236 234 234 234 233 229 229 229 228 227 226 227 227 226 226 227 228 229 228 229 228 228 228 229 229 230 232 234 236 238 239 241 244 248 254 259 264 269 274 277 279 283 286 290 293 296
239 238 237 235 234 235 234 232 230 229 228 227 227 226 226 226 226 226 226 227 228 228 228 228 228 228 229 231 232 233 235 236 238 240 242 245 250 255 260 265 269 273 276 279 283 287 290 293 295
236 236 235 235 233 235 234 233 230 229 228 227 227 226 225 225 225 226 226 226 227 228 228 228 228 229 230 232 233 234 235 237 239 241 244 248 252 256 261 265 269 273 276 280 283 287 290 292 295
235 234 234 234 233 234 235 234 231 229 228 227 226 226 225 226 225 225 226 227 227 227 228 228 229 230 232 233 234 235 236 238 241 244 246 250 253 257 261 265 270 273 277 280 284 287 289 292 294
234 232 232 232 232 231 232 234 230 230 229 227 227 227 226 226 226 225 226 228 228 228 228 229 230 231 232 234 235 237 238 241 243 246 249 252 255 258 262 266 270 274 277 280 283 286 289 291 293
234 230 230 230 232 233 231 234 230 230 229 228 228 228 227 227 227 226 226 227 229 229 229 230 231 232 233 235 236 238 239 241 243 246 249 252 256 260 264 267 271 274 277 280 282 285 288 291 292
231 229 230 229 231 233 230 234 232 228 230 229 228 227 227 227 227 227 227 227 228 229 229 230 231 232 234 235 237 239 240 242 244 247 250 252 256 260 264 267 271 274 276 279 282 285 287 290 292
229 228 232 232 232 234 231 235 233 228 230 230 229 228 228 227 227 228 228 227 228 229 230 230 231 233 234 235 237 239 241 244 246 248 251 253 257 261 264 267 270 273 275 279 282 284 286 289 291
228 228 231 234 237 236 234 237 232 229 230 230 229 228 228 228 228 229 228 228 229 229 230 231 232 233 234 235 237 239 242 245 247 249 251 254 257 261 264 266 269 272 275 278 281 283 285 288 290
229 230 231 234 237 239 238 237 233 229 229 228 228 228 228 228 228 229 229 229 229 229 231 232 233 234 235 236 237 239 242 245 247 250 252 254 257 260 263 266 268 271 274 277 280 282 284 287 288
232 232 230 232 235 238 238 236 232 230 230 229 230 229 229 229 227 228 229 229 229 229 230 231 232 233 235 237 238 240 243 245 248 250 252 254 256 259 262 265 267 270 273 276 279 281 283 286 288
231 231 230 232 235 236 236 234 231 232 231 230 230 229 228 228 228 228 228 229 229 229 229 231 233 234 235 237 238 240 242 244 247 249 251 253 256 258 261 264 266 269 272 275 277 280 283 286 288
233 230 229 232 233 231 231 229 228 231 230 230 230 229 228 227 228 228 228 228 228 229 229 230 232 234 235 236 238 239 241 243 245 247 249 252 255 257 260 263 266 269 272 274 276 279 283 285 288
Height
5803 5803 5804 5805 5807 5809 5812 5815 5815 5817 5818 5819 5821 5823 5826 5828 5830 5833 5835 5838 5841 5844 5846 5849 5851 5853 5856 5858 5861 5863 5865 5867 5868 5870 5871 5872 5873 5874 5875 5875 5876 5876 5877 5877 5876 5876 5876 5875 5875
5795 5796 5797 5798 5800 5803 5808 5809 5810 5811 5812 5814 5817 5819 5822 5823 5824 5826 5830 5833 5837 5840 5842 5845 5847 5850 5852 5855 5857 5860 5862 5864 5866 5867 5869 5870 5871 5872 5873 5873 5874 5874 5875 5875 5875 5874 5874 5873 5873
5786 5787 5789 5790 5793 5798 5802 5803 5804 5805 5806 5809 5812 5814 5816 5818 5819 5822 5826 5829 5833 5835 5838 5841 5843 5846 5849 5851 5854 5856 5859 5861 5863 5865 5866 5867 5868 5870 5870 5871 5872 5872 5873 5873 5873 5872 5872 5871 5871
5777 5778 5780 5783 5787 5792 5795 5797 5797 5799 5801 5804 5806 5809 5811 5813 5815 5818 5821 5824 5828 5831 5833 5836 5839 5842 5845 5848 5850 5853 5855 5858 5860 5862 5863 5865 5866 5867 5868 5869 5870 5870 5871 5871 5871 5870 5870 5869 5869
5766 5768 5770 5774 5780 5785 5788 5790 5790 5792 5795 5798 5801 5803 5806 5808 5811 5814 5816 5819 5822 5826 5829 5831 5834 5837 5841 5844 5847 5849 5852 5855 5857 5859 5861 5862 5863 5864 5866 5867 5867 5868 5868 5868 5868 5868 5868 5867 5866
5755 5758 5761 5765 5772 5777 5781 5783 5784 5786 5789 5792 5795 5797 5800 5802 5806 5808 5810 5813 5817 5821 5824 5826 5829 5833 5836 5840 5843 5846 5849 5851 5853 5856 5858 5859 5861 5862 5863 5864 5865 5865 5866 5866 5866 5866 5865 5865 5864
5745 5746 5750 5756 5762 5768 5773 5774 5777 5779 5782 5786 5788 5791 5793 5797 5800 5803 5805 5808 5812 5816 5819 5822 5825 5828 5832 5835 5839 5842 5845 5847 5850 5852 5854 5856 5858 5859 5860 5861 5862 5863 5863 5863 5863 5863 5862 5862 5861
5731 5733 5738 5745 5752 5759 5764 5765 5768 5771 5775 5779 5781 5784 5787 5792 5795 5797 5800 5803 5807 5811 5814 5817 5820 5824 5827 5831 5834 5838 5841 5844 5846 5849 5851 5853 5854 5856 5857 5858 5859 5859 5860 5860 5860 5860 5860 5859 5858
5716 5719 5726 5737 5743 5750 5753 5756 5760 5763 5767 5771 5774 5777 5781 5786 5789 5792 5795 5799 5802 5806 5809 5812 5815 5819 5823 5826 5830 5833 5837 5840 5842 5845 5847 5849 5851 5853 5854 5855 5856 5856 5857 5857 5857 5857 5856 5856 5855
5702 5707 5719 5729 5732 5737 5741 5745 5750 5754 5758 5763 5767 5770 5774 5780 5783 5787 5790 5794 5797 5800 5804 5807 5810 5814 5818 5821 5825 5829 5832 5836 5838 5841 5843 5846 5847 5849 5850 5851 5852 5853 5854 5854 5854 5854 5853 5852 5851
5690 5697 5708 5713 5719 5723 5728 5734 5739 5743 5749 5755 5759 5763 5768 5773 5777 5780 5784 5788 5791 5795 5798 5802 5805 5809 5813 5817 5820 5824 5828 5831 5834 5837 5839 5842 5844 5845 5847 5848 5849 5850 5850 5850 5850 5850 5849 5848 5847
5676 5685 5692 5699 5705 5710 5716 5722 5727 5733 5741 5746 5750 5754 5759 5765 5770 5774 5778 5782 5785 5789 5793 5796 5800 5804 5808 5812 5816 5819 5823 5827 5830 5833 5835 5837 5840 5841 5843 5844 5845 5846 5846 5846 5846 5846 5845 5844 5843
5662 5671 5677 5684 5690 5697 5702 5709 5716 5722 5730 5736 5740 5744 5751 5757 5762 5767 5771 5775 5779 5783 5787 5791 5795 5799 5803 5807 5811 5815 5818 5822 5825 5828 5831 5833 5835 5837 5838 5840 5841 5842 5842 5842 5842 5841 5841 5840 5838
5650 5656 5662 5668 5676 5683 5689 5696 5702 5713 5720 5726 5731 5736 5743 5749 5755 5759 5763 5768 5773 5778 5782 5786 5790 5794 5798 5802 5806 5810 5813 5817 5820 5823 5826 5828 5830 5832 5834 5836 5837 5837 5837 5837 5837 5837 5836 5835 5833
5635 5640 5645 5654 5663 5671 5676 5680 5692 5704 5708 5714 5721 5727 5734 5741 5746 5752 5757 5762 5767 5771 5776 5780 5784 5788 5793 5797 5801 5805 5808 5812 5815 5818 5821 5823 5825 5828 5829 5831 5832 5832 5833 5832 5832 5832 5831 5830 5828
5620 5624 5630 5643 5651 5658 5662 5668 5685 5691 5696 5703 5710 5717 5724 5731 5738 5744 5749 5754 5759 5764 5769 5774 5778 5783 5787 5791 5795 5799 5803 5807 5810 5813 5816 5818 5820 5823 5824 5826 5827 5827 5827 5827 5827 5826 5825 5824 5822
5605 5611 5619 5632 5638 5644 5647 5657 5673 5678 5684 5692 5699 5707 5714 5722 5729 5735 5741 5746 5752 5757 5762 5767 5772 5777 5781 5785 5790 5794 5798 5801 5805 5808 5810 5813 5815 5817 5819 5820 5821 5822 5822 5822 5821 5821 5820 5818 5817
5595 5601 5608 5617 5626 5630 5635 5645 5658 5664 5671 5679 5688 5695 5703 5711 5720 5727 5733 5738 5744 5750 5755 5761 5765 5770 5774 5779 5784 5788 5792 5796 5799 5802 5805 5808 5810 5812 5814 5815 5816 5816 5816 5816 5815 5815 5813 5812 5810
5582 5587 5594 5604 5613 5617 5623 5632 5642 5650 5657 5666 5675 5684 5692 5701 5710 5717 5723 5730 5735 5741 5747 5753 5759 5764 5768 5773 5778 5782 5786 5790 5794 5797 5799 5802 5804 5806 5808 5809 5810 5810 5810 5810 5809 5808 5807 5805 5803
5568 5573 5581 5591 5599 5604 5610 5618 5628 5635 5645 5654 5663 5673 5682 5690 5699 5707 5714 5720 5727 5733 5739 5746 5752 5757 5762 5767 5772 5776 5780 5783 5787 5790 5793 5796 5798 5800 5802 5803 5803 5804 5804 5803 5803 5802 5800 5799 5797
5556 5563 5572 5580 5587 5591 5597 5603 5613 5623 5633 5642 5651 5661 5671 5679 5688 5697 5704 5711 5718 5725 5732 5738 5745 5750 5755 5760 5764 5768 5773 5777 5781 5784 5787 5789 5792 5794 5795 5796 5797 5797 5797 5797 5796 5795 5794 5792 5790
5546 5556 5562 5568 5573 5578 5586 5590 5602 5611 5620 5630 5641 5651 5661 5670 5678 5687 5695 5702 5710 5717 5724 5730 5736 5742 5747 5752 5757 5762 5767 5771 5775 5777 5780 5782 5785 5787 5788 5789 5790 5790 5790 5790 5789 5788 5786 5785 5783
5538 5546 5552 5557 5562 5567 5574 5578 5589 5599 5607 5620 5632 5642 5651 5660 5669 5677 5685 5694 5701 5708 5715 5721 5728 5734 5739 5744 5750 5755 5759 5764 5767 5770 5773 5775 5777 5780 5781 5782 5783 5783 5783 5782 5782 5781 5779 5778 5776
5530 5536 5541 5546 5550 5553 5563 5568 5576 5589 5600 5613 5623 5632 5641 5650 5658 5666 5675 5683 5691 5698 5705 5712 5718 5725 5731 5737 5742 5747 5752 5755 5759 5762 5765 5768 5770 5772 5774 5774 5775 5775 5775 5775 5774 5773 5772 5770 5768
5521 5527 5532 5535 5538 5544 5556 5557 5567 5584 5594 5603 5613 5622 5631 5639 5647 5655 5663 5672 5680 5688 5696 5703 5709 5716 5722 5728 5734 5739 5744 5747 5751 5755 5758 5760 5763 5765 5766 5766 5767 5768 5767 5767 5766 5765 5764 5762 5760
5513 5519 5524 5529 5534 5541 5547 5548 5563 5578 5584 5592 5601 5610 5618 5626 5636 5644 5653 5662 5670 5678 5686 5693 5701 5707 5714 5720 5726 5731 5735 5739 5743 5746 5749 5752 5755 5756 5757 5758 5759 5759 5759 5759 5758 5757 5756 5754 5752
5506 5511 5518 5522 5527 5532 5536 5545 5557 5565 5572 5581 5590 5598 5607 5616 5625 5635 5643 5651 5660 5669 5677 5684 5692 5698 5705 5711 5717 5722 5727 5731 5735 5738 5741 5744 5746 5748 5749 5750 5751 5751 5751 5751 5750 5749 5748 5746 5744
5500 5506 5510 5514 5518 5523 5530 5538 5548 5557 5565 5574 5581 5589 5598 5606 5615 5624 5632 5640 5649 5659 5667 5674 5681 5689 5695 5702 5708 5713 5718 5723 5726 5729 5732 5735 5738 5739 5740 5741 5742 5743 5743 5743 5742 5741 5740 5738 5736
5494 5498 5502 5508 5513 5518 5524 5535 5543 5550 5558 5565 5572 5580 5588 5596 5604 5613 5622 5630 5639 5648 5656 5664 5672 5679 5685 5692 5698 5704 5709 5713 5717 5720 5724 5727 5729 5730 5732 5733 5734 5734 5735 5734 5734 5733 5731 5730 5728
5486 5491 5496 5501 5507 5512 5518 5530 5536 5541 5548 5556 5563 5570 5578 5586 5594 5602 5611 5620 5628 5637 5646 5654 5662 5669 5677 5683 5689 5694 5699 5704 5708 5711 5715 5717 5720 5722 5723 5724 5725 5726 5726 5726 5725 5725 5723 5722 5720